Regional Weather Roundup
Issued by NWS Wakefield, VA

Home | Current Version | Previous Version | Graphics & Text | Print | Product List | Glossary On
Versions: 1 2 3 4 5 6 7 8 9 10 11 12 13 14 15 16 17 18 19 20 21 22 23 24 25 26 27 28 29 30 31 32 33 34 35 36 37 38 39 40 41 42 43 44 45 46 47 48 49 50
000
ASUS41 KAKQ 231615
RWRAKQ

REGIONAL WEATHER ROUNDUP
NATIONAL WEATHER SERVICE WAKEFIELD VA
1200 PM EDT SUN APR 23 2017

Note: "fair" indicates few or no clouds below 12,000 feet with no
significant weather and/or obstructions to visibility. * = Denotes
station may not report precipitation (e.g., rain,snow,etc.),
thunder or fog.

VAZ042-051-052>054-056-231700-
NORTHERN VIRGINIA

CITY           SKY/WX    TMP DP  RH WIND       PRES   REMARKS
WASH NATIONAL  CLOUDY    55  44  66 E5        30.16R
DULLES         PTSUNNY   54  39  57 CALM      30.15R
FORT BELVOIR   CLOUDY    55  41  59 NE3       30.16R
QUANTICO       CLOUDY    57  45  64 NE8       30.16R
FREDERICKSBRG* PTSUNNY   55  44  66 N5        30.14S
STAFFORD*      MOSUNNY   56  43  63 N8        30.19S
WARRENTON      CLOUDY    56  39  53 N9        30.15S
CULPEPER*      CLOUDY    55  42  59 E5        30.16F
MANASSAS*        N/A     54  40  59 CALM      30.16R
LEESBURG*      MOSUNNY   57  43  58 NE7       30.15S
WINCHESTER     MOSUNNY   52  37  58 CALM      30.14F
FRONT ROYAL*   MOSUNNY   54  43  66 CALM      30.13F
LURAY*         PTSUNNY   52  41  66 NE6       30.13S
$$

VAZ048-049-060>072-079>083-231700-
CENTRAL AND SOUTH CENTRAL VIRGINIA

CITY           SKY/WX    TMP DP  RH WIND       PRES   REMARKS
RICHMOND       CLOUDY    53  46  77 NE12      30.12R
CHESTERFIELD*  PTSUNNY  N/A N/A N/A NE9       30.14R
PETERSBURG*    DRIZZLE   53  47  80 NE9       30.12R
HANOVER        CLOUDY    53  44  71 VRB6      30.14S
TAPPAHANNOCK*  CLOUDY    55  43  65 N7        30.14R
QUINTON*       PTSUNNY   52  47  84 MISG      30.12S
CHARLOTTSVILLE CLOUDY    55  39  54 NE9       30.13F
GORDONSVILLE*  MOSUNNY   53  41  62 NE8       30.13F
ORANGE*        MOSUNNY   52  41  66 CALM      30.14S
LOUISA*        MOSUNNY   57  48  72 NE7       30.12F
BUMPASS*       CLOUDY    54  45  70 E7        30.13S
FARMVILLE*     CLOUDY    53  49  85 NE8       30.10S
CREWE*         CLOUDY    51  51 100 NE7       30.11S
FORT PICKETT*  CLOUDY    53  45  76 NE9       30.11R
CHASE CITY*    CLOUDY    51  50  95 NE7       30.09F
CLARKSVILLE*   CLOUDY    52  52 100 NE3       30.09S
SOUTH HILL*    CLOUDY    51  50  97 N8        30.15R
LAWRENCEVILLE* CLOUDY    52  50  93 N3        30.10R
EMPORIA*       LGT RAIN  52  52 100 N7        30.11R
$$

VAZ088>098-231700-
SOUTHEAST VIRGINIA

CITY           SKY/WX    TMP DP  RH WIND       PRES   REMARKS
NORFOLK        CLOUDY    57  49  74 NE13      30.08R
VIRGINIA BEACH CLOUDY    54  48  80 NE13      30.08R
NORFOLK NAVAL  CLOUDY    57  48  72 NE14G20   30.10R
WEST POINT*    PTSUNNY   54  47  76 NE6       30.14R
SALUDA*        CLOUDY    54  48  79 NE7       30.12R
NEWPORT NEWS   LGT RAIN  55  49  80 NE10      30.10R
LANGLEY AFB    CLOUDY    55  50  82 NE15      30.09R
FORT EUSTIS    CLOUDY    58  48  69 E9        30.08R
WILLIAMSBURG*  MOSUNNY   57  54  88 NE6       30.11S
HR EXEC AP*    CLOUDY    55  48  76 NE6       30.07R
FRANKLIN*      DRIZZLE   55  51  87 NE6       30.09R
US460-WAKEFLD  CLOUDY    54  49  83 NE6       30.10R
$$

VAZ020-022-025-037-045-231700-
WEST CENTRAL AND SOUTHWEST VIRGINIA

CITY           SKY/WX    TMP DP  RH WIND       PRES   REMARKS
STAUNTON*      CLOUDY    49  41  72 NE6       30.14R
WAYNESBORO*    CLOUDY    50  43  77 N3        30.12R
HOT SPRINGS VA CLOUDY    41  39  93 E10       30.07R FOG
LYNCHBURG      CLOUDY    51  44  77 NE9       30.11R
DANVILLE       LGT RAIN  51  50  96 NE13      30.06F
SOUTH BOSTON*  CLOUDY    52  50  95 NE7       30.09F
MARTINSVILLE   DRIZZLE   49  46  90 NE7       30.10R
ROANOKE        LGT RAIN  51  45  79 E6        30.10S
BLACKSBURG     RAIN      46  42  86 E12G17    30.09R
DUBLIN*        LGT RAIN  47  42  84 E7        30.07S
MARION*        LGT RAIN  46  45  96 E12       30.06S
HILLSVILLE*    RAIN      44  44 100 CALM      30.03S
RICHLANDS*     RAIN      47  46  95 E7        29.99R
WISE*          LGT RAIN  50  50 100 CALM      29.96S
ABINGDON*      LGT RAIN  50  49  94 E15G24    29.97S
$$

MDZ021>025-VAZ099-100-231700-
SOUTHERN MARYLAND AND THE DELMARVA PENINSULA

CITY           SKY/WX    TMP DP  RH WIND       PRES   REMARKS
PATUXENT RIVER CLOUDY    54  46  74 NE7       30.13S
BAY BRIDGE APT PTSUNNY   55  43  62 N3        30.14F
LEONARDTOWN    MOSUNNY   54  43  66 E3        30.15R
DOVER          PTSUNNY   57  53  87 E5        30.13S
GEORGETOWN     CLOUDY    56  44  64 MISG      30.14R
EASTON         PTSUNNY   55  41  58 E8        30.16S
CAMBRIDGE      SUNNY     57  45  62 VRB7      30.13S
SALISBURY      CLOUDY    56  47  71 E10       30.12R
OCEAN CITY     CLOUDY    55  46  71 E12       30.13S
WALLOPS ISLAND MOSUNNY   56  48  74 NE20      30.12R
ACCOMACK*      CLOUDY    57  48  73 NE14G20   30.09F
$$

NCZ012>017-030>032-231700-
NORTH CENTRAL AND EASTERN NORTH CAROLINA

CITY           SKY/WX    TMP DP  RH WIND       PRES   REMARKS
ROANOKE RAPIDS CLOUDY    54  52  94 NE5       30.08R
RALEIGH        LGT RAIN  55  52  89 NE12      30.04F
ELIZABETH CITY CLOUDY    59  54  83 NE17      30.06R
AHOSKIE*         N/A     55  50  81 NE8       30.07S
EDENTON*       CLOUDY    60  54  78 NE13      30.06S
CURRITUCK*     CLOUDY    58  52  80 NE15G22   30.08R
KILL DEVIL HLS CLOUDY    57  52  84 NE6G18    30.04R
MANTEO         CLOUDY    57  52  83 NE16G23   30.05S
CAPE HATTERAS  CLOUDY    60  56  86 NE10G22   30.00F FOG
TARBORO*       NOT AVBL
GOLDSBORO      CLOUDY    58  58  99 NE8       30.01R
WASHINGTON     CLOUDY    58  54  86 NE9       30.03S
GREENVILLE     CLOUDY    59  54  82 E9        30.06R
NEW BERN       LGT RAIN  60  58  92 NE12      30.01F
WILMINGTON     LGT RAIN  62  62 100 NE9       29.97S FOG
$$

VAZ048-231700-
ELSEWHERE

CITY           SKY/WX    TMP DP  RH WIND       PRES   REMARKS
HARRISBURG PA  PTSUNNY   57  37  47 VRB6      30.14S
BALTIMORE      PTSUNNY   57  43  59 NE10      30.13F
ANNAPOLIS      MOSUNNY   56  43  61 N5        30.14S
ANDREWS AFB    CLOUDY    54  42  63 CALM      30.14R
PHILADELPHIA   MOSUNNY   59  41  51 E7        30.14F
HENDERSON NC   DRIZZLE   49  48  94 NE8       30.08S
GREENSBORO     LGT RAIN  51  50  96 NE13      30.03R
ROCKY MOUNT    CLOUDY    57  54  89 NE7       30.06R
$$

VAZ100-231700-
MARINE

STATION/POSITION TIME  TEMP    WIND        PRES    WAVE   SWELL
                       AIR SEA DIR/SP/G            HT/PER HT/PER
                 (UTC) (F)     (DEG/KT/KT) (MB)    (FT/S) (FT/S)
CAPE MAY NJ      1548   52 55   70/ 12/ 17 1019.8F
LEWES DE         1536   52 54   80/ 16/ 19 1020.0F
15NM E FENWICK I 1550   51 52   40/ 16/ 17 1020.4R   5/12   3/12
OCEAN-CITY-INLET 1536   52 55   70/  6/ 11 1020.8R
WACHAPREAGUE VA  1542   55 62   40/ 17/ 21 1018.7F
THOMAS POINT MD  1600   52 58   10/  8/ 10   N/A
GOOSES REEF MD   1600   54 54   90/  6/  8 1021.2    1/ 2
COVE POINT MD    1542   53      90/  5/  7 1020.9S
SOLOMONS ISLAND  1542   53 61   70/  5/ 10   N/A
BISHOPS HEAD MD  1548   54 60   70/  8/ 12 1020.2S
PINEY POINT MD   1548           90/  9/ 10   N/A
POTOMAC MD       1600   54 61   60/  8/ 12 1019.5    1/ 2
CAMBRIDGE MD     1548   54 64   80/  8/ 11 1019.4S
LEWISETTA VA     1542   53 63   70/ 11/ 13 1020.0R
RAPPAHANNOCK LGT 1548           50/ 12/ 14 1019.9S
STINGRAY PT      1550   54      70/ 14/ 16 1019.6R
YORK RVR RNG VA  1542   54      70/ 13/ 15 1018.7R
YORKTOWN VA      1542   56 64   50/ 15/ 17 1018.9R
JAMESTOWN VA     1600   55 69   50/  6/  8   N/A     0
DOMINION TERM VA 1542   56      60/ 11/ 15 1018.9R
KIPTOPEKE VA     1542      61   70/  7/ 14   N/A
CHES BAY BRIDGE  1542   54 61   50/ 17/ 20 1018.5R
CAPE HENRY VA    1542   54      40/ 18/ 21   N/A
WILLOUBY STN VA  1542   55      50/ 15/ 16 1019.6R
S CRANEY ISL VA  1542   56      70/ 14/ 18 1018.4R
CAPE HENRY BUOY  1542      57                N/A     5/ 6   2/12
1ST LANDING BUOY 1600   56 61              1019.4    2/ 3
CAPE CHARLES BUO 1551      57                N/A     5/ 6   2/11
64NM E OF VA BCH 1550   53 54   20/ 14/ 16 1017.7F   5/11   3/11
DUCK PIER NC     1542   55 63   30/ 20/ 21 1017.1S
44100 DUCK FRF   1535      57                N/A     6/11   2/11
44056 DUCK FRF   1530      61                N/A     5/ 7   2/12
OREGON INLET NC  1542   56 61   30/ 13/ 19 1016.7F
HATTERAS NC      1542   60 69   30/ 13/ 19 1015.7S
DIAMOND SHLS NC  1550   67 74   30/ 16/ 17 1015.3F   5/ 7   3/11
CAPE LOOKOUT NC  1600   63      40/ 19/ 22 1015.0F
$$



USA.gov is the U.S. government's official web portal to all federal, state and local government web resources and services.